ONEWEB-0107 (48048 NORAD) Tracking and Keplerian Element Data

This shows tracking and keplerian element data for the satellite.

Feedback or suggestion? Click here.




ElementValue
Catalog48048
NameONEWEB-0107
Epoch Orbit192
Epoch Day173.91668981
Epoch Year2021
RAAN322.2562
Inclination87.7595
Eccentricity0.0010134
Argument of Perigee346.6763
Mean Anonmoly310.2951
Mean Motion13.72581115
Decay Rate1.5E-07
L11 48048U 21025G 21173.91668981 .00000015 00000-0 00000-0 0 9992
L22 48048 87.7595 322.2562 0010134 346.6763 310.2951 13.72581115 1920

Live tracking and technical data element details for ONEWEB-0107 (NORAD 48048). ONEWEB-0107 can be tracked NOW for your location showing map with azimuth and elevation plus other details from your city location.

Track the satellite on the map from your city or location and see movement details for azimuth, elevation, latitude, longitude, range, height, and movement on the map or in text.







IsCatalogInMostPopularTable: catalog: 48048, numindb: 38
Update: records affected: 1



GetName: 48048 ONEWEB-0107

Hit Count: updated at: Thu, 24 Jun 2021 03:05:50 GMT